This is the latest recevied weather packets stored in our database for station/object KQ4WWD. If no packets are shown the sender has not sent any weather packets the latest 1 day(s).
| Time | Temp. | Humidity | Pressure | Rain* | Wind** | Luminosity | Snow |
|---|---|---|---|---|---|---|---|
| 1778018245 | 31.67° C | 42% | 1013.9 hPa | 0 mm | 0.89 m/s, 160° | 291 W/m² | - |
| 1778017943 | 31.67° C | 42% | 1013.6 hPa | 0 mm | 0 m/s | 304 W/m² | - |
| 1778017641 | 31.67° C | 43% | 1013.5 hPa | 0 mm | 0 m/s | 329 W/m² | - |
| 1778017338 | 31.11° C | 43% | 1013.9 hPa | 0 mm | 0.45 m/s, 139° | 339 W/m² | - |
| 1778017035 | 31.11° C | 43% | 1013.7 hPa | 0 mm | 0.89 m/s, 124° | 381 W/m² | - |
| 1778016732 | 31.67° C | 42% | 1014 hPa | 0 mm | 0 m/s | 413 W/m² | - |
| 1778016428 | 31.11° C | 42% | 1013.8 hPa | 0 mm | 0 m/s | 415 W/m² | - |
| 1778016125 | 31.67° C | 43% | 1013.8 hPa | 0 mm | 0.45 m/s, 134° | 418 W/m² | - |
| 1778015822 | 31.11° C | 43% | 1013.9 hPa | 0 mm | 1.34 m/s, 167° | 433 W/m² | - |
| 1778015519 | 30.56° C | 45% | 1013.8 hPa | 0 mm | 0 m/s | 449 W/m² | - |
| 1778015216 | 30.56° C | 45% | 1013.9 hPa | 0 mm | 0.89 m/s, 200° | 187 W/m² | - |
| 1778014913 | 31.11° C | 44% | 1013.8 hPa | 0 mm | 0.89 m/s, 98° | 204 W/m² | - |
| 1778014611 | 30° C | 46% | 1013.6 hPa | 0 mm | 1.34 m/s, 191° | 449 W/m² | - |
| 1778014308 | 30.56° C | 46% | 1013.4 hPa | 0 mm | 2.24 m/s, 143° | 184 W/m² | - |
| 1778014004 | 30.56° C | 46% | 1013.7 hPa | 0 mm | 2.68 m/s, 155° | 483 W/m² | - |
| 1778013703 | 30° C | 46% | 1013.8 hPa | 0 mm | 1.79 m/s, 154° | 406 W/m² | - |
| 1778013399 | 30.56° C | 45% | 1013.8 hPa | 0 mm | 0.89 m/s, 169° | 271 W/m² | - |
| 1778013097 | 30.56° C | 45% | 1013.8 hPa | 0 mm | 0.45 m/s, 58° | 455 W/m² | - |
| 1778012792 | 31.67° C | 44% | 1014.1 hPa | 0 mm | 0.45 m/s, 123° | 458 W/m² | - |
| 1778012488 | 31.11° C | 46% | 1014.1 hPa | 0 mm | 0 m/s | 509 W/m² | - |
| 1778012185 | 31.67° C | 45% | 1014 hPa | 0 mm | 2.24 m/s, 106° | 585 W/m² | - |
| 1778011883 | 31.67° C | 45% | 1013.9 hPa | 0 mm | 0.45 m/s, 144° | 488 W/m² | - |
| 1778011581 | 32.22° C | 39% | 1013.9 hPa | 0 mm | 1.34 m/s, 235° | 591 W/m² | - |
| 1778011278 | 32.22° C | 40% | 1014 hPa | 0 mm | 0 m/s | 609 W/m² | - |
| 1778010974 | 31.11° C | 44% | 1014.3 hPa | 0 mm | 0 m/s | 551 W/m² | - |
* Rain latest hour (hover to see other rain measurements)
** Current wind speed in m/s (hover to see current wind gust speed)